Change the Weather History Date:

Thursday, December 5, 2013

  Actual Average (KATT) Record (KATT)
Temperature  
Mean Temperature 49 °F 54 °F  
Max Temperature 66 °F 65 °F 84 °F (1995)
Min Temperature 32 °F 44 °F 24 °F (1950)
Degree Days  
Heating Degree Days 16 11  
Month to date heating degree days 54  
Since 1 July heating degree days 266  
Cooling Degree Days 0 1  
Month to date cooling degree days 5  
Year to date cooling degree days 3131  
Moisture  
Dew Point 37 °F    
Average Humidity 79    
Maximum Humidity 100    
Minimum Humidity 60    
Precipitation  
Precipitation 0.00 in 0.07 in 2.45 in (1969)
Month to date precipitation 0.37  
Year to date precipitation 32.29  
Snow  
Snow 0.00 in - - ()
Month to date snowfall  
Since 1 July snowfall  
Snow Depth -    
Sea Level Pressure  
Sea Level Pressure 30.00 in    
Wind  
Wind Speed 13 mph (North)    
Max Wind Speed 22 mph    
Max Gust Speed 29 mph    
Visibility 8 miles    
Events Fog , Rain    
T = Trace of Precipitation, MM = Missing Value Source: NWS Daily Summary

Daily Weather History Graph

Daily Weather History Graph

Search for Another Location

Airport or City:

Trip Planner

Search our weather history database for the weather conditions in past years. The results will help you decide how hot, cold, wet, or windy it might be!

Date:

Astronomy

Dec. 05, 2013 Rise Set
Actual Time 7:12 AM CST 5:29 PM CST
Civil Twilight 6:46 AM CST 5:55 PM CST
Nautical Twilight 6:16 AM CST 6:25 PM CST
Astronomical Twilight 5:47 AM CST 6:54 PM CST
Moon 9:39 AM CST (12/5) 8:44 PM CST (12/5)
Length of Visible Light 11h 09m
Length of Day
10h 16m
Waxing Crescent, 11% of the Moon is Illuminated
Dec 5
Waxing Crescent
Dec 9
First Quarter
Dec 17
Full
Dec 25
Last Quarter
Jan 1
New

Hourly Weather History & Observations

Time (CST) Temp. Windchill Dew Point Humidity Pressure Visibility Wind Dir Wind Speed Gust Speed Precip Events Conditions
12:15 AM 62.6 °F - 62.6 °F 100% 29.80 in 2.0 mi South 4.6 mph - N/A   Overcast
12:35 AM 64.4 °F - 64.4 °F 100% 29.80 in 1.8 mi SSW 4.6 mph - N/A   Overcast
12:55 AM 64.4 °F - 64.4 °F 100% 29.79 in 1.5 mi SSW 4.6 mph - N/A   Overcast
1:15 AM 66.2 °F - 66.2 °F 100% 29.80 in 0.5 mi SSW 8.1 mph - N/A Fog Fog
1:35 AM 66.2 °F - 66.2 °F 100% 29.80 in 0.2 mi South 8.1 mph - N/A Fog Fog
1:55 AM 66.2 °F - 66.2 °F 100% 29.79 in 0.2 mi SSW 6.9 mph - N/A Fog Fog
2:15 AM 66.2 °F - 66.2 °F 100% 29.79 in 0.2 mi SSW 5.8 mph - N/A Fog Fog
2:35 AM 66.2 °F - 66.2 °F 100% 29.80 in 0.2 mi SSW 5.8 mph - N/A Fog Fog
2:55 AM 66.2 °F - 66.2 °F 100% 29.80 in 0.5 mi SSW 8.1 mph - N/A Fog Fog
3:15 AM 66.2 °F - 66.2 °F 100% 29.82 in 0.2 mi Calm Calm - N/A Fog Fog
3:35 AM 66.2 °F - 66.2 °F 100% 29.83 in 0.2 mi NNW 6.9 mph - N/A Fog Fog
3:55 AM 66.2 °F - 66.2 °F 100% 29.85 in 0.5 mi North 8.1 mph - N/A Fog Fog
4:15 AM 57.2 °F - 57.2 °F 100% 29.87 in 0.8 mi North 17.3 mph 25.3 mph N/A   Overcast
4:35 AM 53.6 °F - 53.6 °F 100% 29.88 in 1.2 mi North 20.7 mph 28.8 mph N/A Rain Light Rain
4:55 AM 50.0 °F - 50.0 °F 100% 29.89 in 6.0 mi North 19.6 mph 26.5 mph N/A   Overcast
5:15 AM 50.0 °F - 50.0 °F 100% 29.91 in 5.0 mi NNE 16.1 mph 21.9 mph N/A   Overcast
5:35 AM 48.2 °F - 46.4 °F 93% 29.93 in 6.0 mi NNE 21.9 mph 26.5 mph N/A   Overcast
5:55 AM 48.2 °F - 42.8 °F 82% 29.95 in 10.0 mi NNE 17.3 mph - N/A   Overcast
6:15 AM 46.4 °F 39.5 °F 41.0 °F 81% 29.97 in 10.0 mi NNE 17.3 mph 23.0 mph N/A   Overcast
6:35 AM 46.4 °F 39.5 °F 41.0 °F 81% 29.99 in 10.0 mi North 17.3 mph 23.0 mph N/A   Overcast
6:55 AM 44.6 °F 38.1 °F 39.2 °F 81% 30.00 in 10.0 mi North 13.8 mph 24.2 mph N/A   Overcast
7:15 AM 42.8 °F 34.3 °F 37.4 °F 81% 30.01 in 10.0 mi North 19.6 mph 25.3 mph N/A   Overcast
7:35 AM 41.0 °F 32.2 °F 37.4 °F 87% 30.02 in 10.0 mi North 18.4 mph 25.3 mph N/A   Overcast
7:55 AM 41.0 °F 31.6 °F 35.6 °F 81% 30.03 in 10.0 mi North 20.7 mph 26.5 mph N/A   Overcast
8:15 AM 41.0 °F 32.2 °F 35.6 °F 81% 30.04 in 10.0 mi North 18.4 mph 24.2 mph N/A   Overcast
8:35 AM 39.2 °F 29.3 °F 35.6 °F 87% 30.04 in 9.0 mi North 20.7 mph - N/A   Overcast
8:55 AM 39.2 °F 30.2 °F 33.8 °F 81% 30.06 in 9.0 mi North 17.3 mph 24.2 mph N/A   Overcast
9:15 AM 39.2 °F 30.5 °F 33.8 °F 81% 30.07 in 9.0 mi North 16.1 mph 20.7 mph N/A   Overcast
9:35 AM 39.2 °F 29.8 °F 33.8 °F 81% 30.08 in 10.0 mi North 18.4 mph 25.3 mph N/A   Overcast
9:55 AM 39.2 °F 29.6 °F 33.8 °F 81% 30.08 in 10.0 mi North 19.6 mph 26.5 mph N/A   Overcast
10:15 AM 39.2 °F 30.2 °F 32.0 °F 75% 30.07 in 10.0 mi North 17.3 mph - N/A   Overcast
10:35 AM 39.2 °F 29.8 °F 32.0 °F 75% 30.08 in 10.0 mi North 18.4 mph 23.0 mph N/A   Overcast
10:55 AM 41.0 °F 32.8 °F 32.0 °F 70% 30.08 in 10.0 mi North 16.1 mph 21.9 mph N/A   Overcast
11:15 AM 39.2 °F 29.3 °F 32.0 °F 75% 30.08 in 10.0 mi North 20.7 mph 24.2 mph N/A   Overcast
11:35 AM 39.2 °F 29.8 °F 32.0 °F 75% 30.08 in 10.0 mi North 18.4 mph 24.2 mph N/A   Overcast
11:55 AM 39.2 °F 29.8 °F 32.0 °F 75% 30.07 in 10.0 mi North 18.4 mph - N/A   Overcast
12:15 PM 39.2 °F 29.6 °F 32.0 °F 75% 30.05 in 9.0 mi North 19.6 mph 25.3 mph N/A   Overcast
12:35 PM 41.0 °F 32.8 °F 30.2 °F 65% 30.03 in 10.0 mi North 16.1 mph 24.2 mph N/A   Overcast
12:55 PM 41.0 °F 32.2 °F 32.0 °F 70% 30.02 in 10.0 mi NNE 18.4 mph 23.0 mph N/A   Overcast
1:15 PM 41.0 °F 32.2 °F 30.2 °F 65% 30.03 in 10.0 mi North 18.4 mph - N/A   Overcast
1:35 PM 39.2 °F 30.2 °F 28.4 °F 65% 30.00 in 10.0 mi NNE 17.3 mph - N/A   Overcast
1:55 PM 41.0 °F 32.5 °F 28.4 °F 61% 30.02 in 10.0 mi North 17.3 mph 23.0 mph N/A   Overcast
2:15 PM 39.2 °F 29.6 °F 28.4 °F 65% 30.03 in 10.0 mi NNW 19.6 mph 25.3 mph N/A   Overcast
2:35 PM 39.2 °F 29.6 °F 28.4 °F 65% 30.03 in 10.0 mi North 19.6 mph 26.5 mph N/A   Overcast
2:55 PM 39.2 °F 29.6 °F 28.4 °F 65% 30.03 in 10.0 mi North 19.6 mph 27.6 mph N/A   Overcast
3:15 PM 39.2 °F 29.3 °F 28.4 °F 65% 30.03 in 10.0 mi North 20.7 mph 27.6 mph N/A   Overcast
3:35 PM 39.2 °F 29.3 °F 26.6 °F 61% 30.03 in 10.0 mi North 20.7 mph - N/A   Overcast
3:55 PM 39.2 °F 29.6 °F 26.6 °F 61% 30.04 in 10.0 mi North 19.6 mph 23.0 mph N/A   Overcast
4:15 PM 39.2 °F 29.0 °F 26.6 °F 61% 30.04 in 10.0 mi North 21.9 mph 27.6 mph N/A   Overcast
4:35 PM 37.4 °F 27.8 °F 26.6 °F 65% 30.05 in 10.0 mi North 17.3 mph 24.2 mph N/A   Overcast
4:55 PM 37.4 °F 27.2 °F 26.6 °F 65% 30.05 in 10.0 mi North 19.6 mph 27.6 mph N/A   Overcast
5:15 PM 37.4 °F 26.9 °F 24.8 °F 60% 30.05 in 10.0 mi North 20.7 mph 24.2 mph N/A   Overcast
5:35 PM 37.4 °F 27.2 °F 24.8 °F 60% 30.06 in 10.0 mi North 19.6 mph - N/A   Overcast
5:55 PM 35.6 °F 24.5 °F 24.8 °F 65% 30.06 in 10.0 mi North 20.7 mph 26.5 mph N/A   Overcast
6:15 PM 35.6 °F 24.2 °F 24.8 °F 65% 30.07 in 10.0 mi North 21.9 mph 26.5 mph N/A   Overcast
6:35 PM 35.6 °F 25.9 °F 24.8 °F 65% 30.08 in 10.0 mi North 16.1 mph 21.9 mph N/A   Overcast
6:55 PM 35.6 °F 25.5 °F 24.8 °F 65% 30.08 in 10.0 mi North 17.3 mph 27.6 mph N/A   Overcast
7:15 PM 35.6 °F 26.2 °F 24.8 °F 65% 30.09 in 10.0 mi North 15.0 mph 23.0 mph N/A   Overcast
7:35 PM 35.6 °F 26.6 °F 24.8 °F 65% 30.10 in 10.0 mi NNE 13.8 mph - N/A   Overcast
7:55 PM 35.6 °F 25.9 °F 24.8 °F 65% 30.09 in 10.0 mi NNE 16.1 mph 20.7 mph N/A   Overcast
8:15 PM 35.6 °F 24.8 °F 24.8 °F 65% 30.09 in 10.0 mi North 19.6 mph - N/A   Overcast
8:35 PM 35.6 °F 25.2 °F 24.8 °F 65% 30.10 in 10.0 mi North 18.4 mph - N/A   Overcast
8:55 PM 33.8 °F 22.8 °F 24.8 °F 70% 30.10 in 10.0 mi North 18.4 mph 24.2 mph N/A   Overcast
9:15 PM 32.0 °F 21.2 °F 26.6 °F 80% 30.09 in 10.0 mi North 16.1 mph 21.9 mph N/A   Overcast
9:35 PM 32.0 °F 19.8 °F 26.6 °F 80% 30.09 in 10.0 mi North 20.7 mph 24.2 mph N/A   Overcast
9:55 PM 32.0 °F 20.1 °F 26.6 °F 80% 30.11 in 10.0 mi North 19.6 mph - N/A   Overcast
10:15 PM 32.0 °F 22.1 °F 28.4 °F 87% 30.12 in 10.0 mi North 13.8 mph - N/A   Overcast
10:35 PM 32.0 °F 20.5 °F 28.4 °F 87% 30.11 in 10.0 mi North 18.4 mph 21.9 mph N/A   Overcast
10:55 PM 32.0 °F 22.1 °F 28.4 °F 87% 30.10 in 10.0 mi North 13.8 mph - N/A   Overcast
11:15 PM 32.0 °F 22.5 °F 28.4 °F 87% 30.10 in 10.0 mi North 12.7 mph 21.9 mph N/A   Overcast
11:35 PM 32.0 °F 20.8 °F 28.4 °F 87% 30.09 in 10.0 mi North 17.3 mph - N/A   Overcast
11:55 PM 32.0 °F 22.5 °F 28.4 °F 87% 30.08 in 10.0 mi North 12.7 mph 24.2 mph N/A   Overcast